Location: G�nzburg
(48.4565°N, 10.3217°E)
Time: 20:05:17
(UTC+01:00)

ISS - Pass Details

Date: 12 January 2018
Orbit: 401 x 407 km, 51.6° (Epoch: 17 January)

Event Time Altitude Azimuth Distance (km) Brightness Sun altitude
Exits shadow 04:52:01 11° 88° (E) 1,419 -0.2 -31.6°
Drops below altitude 10° 04:52:08 10° 89° (E) 1,465 -0.1 -31.6°
Sets 04:54:15 0° 94° (E) 2,325 1.2 -31.2°
